Weather History for Hot Springs, VA

Change the Weather History Date:

Friday, December 9, 2011

  Actual Average Record
Temperature  
Mean Temperature 32 °F -  
Max Temperature 37 °F 38 °F 57 °F (1999)
Min Temperature 26 °F 26 °F 10 °F (2010)
Degree Days  
Heating Degree Days 34    
Moisture  
Dew Point 22 °F    
Average Humidity 66    
Maximum Humidity 75    
Minimum Humidity 51    
Precipitation  
Precipitation 0.00 in - - ()
Sea Level Pressure  
Sea Level Pressure 30.20 in    
Wind  
Wind Speed 13 mph (WSW)    
Max Wind Speed 21 mph    
Max Gust Speed 25 mph    
Visibility 10 miles    
Events      
Averages and records for this station are not official NWS values.
T = Trace of Precipitation, MM = Missing Value Source: NWS Daily Summary

Daily Weather History Graph

Daily Weather History Graph

Search for Another Location

Airport:

Trip Planner

Search our weather history database for the weather conditions in past years. The results will help you decide how hot, cold, wet, or windy it might be!

Date:

Astronomy

Dec. 09, 2011 Rise Set
Actual Time 7:23 AM EST 4:59 PM EST
Civil Twilight 6:53 AM EST 5:29 PM EST
Nautical Twilight 6:21 AM EST 6:01 PM EST
Astronomical Twilight 5:49 AM EST 6:33 PM EST
Moon 4:22 PM EST (12/9) 6:29 AM EST (12/9)
Length of Visible Light 10h 35m
Length of Day
9h 36m
Waxing Gibbous, 99% of the Moon is Illuminated
Dec 9
Waxing Gibbous
Dec 10
Full
Dec 17
Last Quarter
Dec 24
New
Jan 1
First Quarter

Hourly Weather History & Observations

Time (EST) Temp. Windchill Dew Point Humidity Pressure Visibility Wind Dir Wind Speed Gust Speed Precip Events Conditions
12:15 AM 32.0 °F 23.6 °F 19.4 °F 60% 30.22 in 10.0 mi SSW 10.4 mph 18.4 mph N/A   Clear
12:35 AM 30.2 °F 22.6 °F 19.4 °F 64% 30.22 in 10.0 mi South 8.1 mph - N/A   Clear
12:55 AM 30.2 °F 21.3 °F 19.4 °F 64% 30.21 in 10.0 mi South 10.4 mph - N/A   Clear
1:15 AM 30.2 °F 20.2 °F 19.4 °F 64% 30.20 in 10.0 mi South 12.7 mph 19.6 mph N/A   Clear
1:35 AM 30.2 °F 19.8 °F 19.4 °F 64% 30.20 in 10.0 mi South 13.8 mph - N/A   Clear
1:55 AM 30.2 °F 20.2 °F 19.4 °F 64% 30.20 in 10.0 mi South 12.7 mph 19.6 mph N/A   Clear
2:15 AM 30.2 °F 19.3 °F 19.4 °F 64% 30.20 in 10.0 mi South 15.0 mph 20.7 mph N/A   Clear
2:35 AM 30.2 °F 20.8 °F 19.4 °F 64% 30.20 in 10.0 mi South 11.5 mph 19.6 mph N/A   Clear
2:55 AM 28.4 °F 18.5 °F 19.4 °F 69% 30.19 in 10.0 mi South 11.5 mph 18.4 mph N/A   Clear
3:15 AM 28.4 °F 19.1 °F 19.4 °F 69% 30.20 in 10.0 mi South 10.4 mph 18.4 mph N/A   Clear
3:35 AM 28.4 °F 18.0 °F 19.4 °F 69% 30.19 in 10.0 mi South 12.7 mph - N/A   Clear
3:55 AM 28.4 °F 19.1 °F 19.4 °F 69% 30.19 in 10.0 mi South 10.4 mph 17.3 mph N/A   Clear
4:15 AM 28.4 °F 18.5 °F 19.4 °F 69% 30.19 in 10.0 mi SSW 11.5 mph - N/A   Clear
4:35 AM 30.2 °F 19.3 °F 19.4 °F 64% 30.19 in 10.0 mi South 15.0 mph 19.6 mph N/A   Clear
4:55 AM 28.4 °F 19.7 °F 19.4 °F 69% 30.19 in 10.0 mi SSW 9.2 mph - N/A   Clear
5:15 AM 28.4 °F 18.5 °F 19.4 °F 69% 30.20 in 10.0 mi SW 11.5 mph - N/A   Clear
5:35 AM 26.6 °F 18.2 °F 19.4 °F 74% 30.20 in 10.0 mi WSW 8.1 mph - N/A   Clear
5:55 AM 26.6 °F 21.2 °F 19.4 °F 74% 30.20 in 10.0 mi SSW 4.6 mph - N/A   Clear
6:15 AM 26.6 °F 16.8 °F 19.4 °F 74% 30.20 in 10.0 mi SSW 10.4 mph - N/A   Clear
6:35 AM 30.2 °F 21.3 °F 15.8 °F 55% 30.20 in 10.0 mi SW 10.4 mph 16.1 mph N/A   Clear
6:55 AM 32.0 °F 21.6 °F 15.8 °F 51% 30.21 in 10.0 mi SW 15.0 mph - N/A   Clear
7:15 AM 30.2 °F 20.2 °F 17.6 °F 60% 30.20 in 10.0 mi SW 12.7 mph - N/A   Clear
7:35 AM 32.0 °F 21.6 °F 15.8 °F 51% 30.20 in 10.0 mi SW 15.0 mph - N/A   Clear
7:55 AM 32.0 °F 21.2 °F 17.6 °F 55% 30.20 in 10.0 mi WSW 16.1 mph - N/A   Clear
8:15 AM 30.2 °F 19.3 °F 19.4 °F 64% 30.20 in 10.0 mi WSW 15.0 mph - N/A   Clear
8:35 AM 30.2 °F 18.5 °F 19.4 °F 64% 30.20 in 10.0 mi WSW 17.3 mph - N/A   Clear
8:55 AM 32.0 °F 20.5 °F 19.4 °F 60% 30.21 in 10.0 mi WSW 18.4 mph - N/A   Clear
9:15 AM 33.8 °F 23.2 °F 19.4 °F 56% 30.21 in 10.0 mi WSW 17.3 mph - N/A   Clear
9:35 AM 33.8 °F 23.2 °F 21.2 °F 60% 30.21 in 10.0 mi WSW 17.3 mph - N/A   Clear
10:15 AM 33.8 °F 23.5 °F 21.2 °F 60% 30.23 in 10.0 mi West 16.1 mph - N/A   Clear
10:35 AM 33.8 °F 22.8 °F 21.2 °F 60% 30.22 in 10.0 mi West 18.4 mph 21.9 mph N/A   Clear
10:55 AM 33.8 °F 23.2 °F 23.0 °F 65% 30.22 in 10.0 mi West 17.3 mph 24.2 mph N/A   Clear
11:15 AM 33.8 °F 22.5 °F 23.0 °F 65% 30.22 in 10.0 mi West 19.6 mph 25.3 mph N/A   Clear
11:35 AM 33.8 °F 22.8 °F 24.8 °F 70% 30.23 in 10.0 mi West 18.4 mph 25.3 mph N/A   Clear
11:55 AM 33.8 °F 23.2 °F 24.8 °F 70% 30.22 in 10.0 mi West 17.3 mph 25.3 mph N/A   Clear
12:15 PM 35.6 °F 25.5 °F 24.8 °F 65% 30.21 in 10.0 mi West 17.3 mph - N/A   Clear
12:35 PM 35.6 °F 24.8 °F 24.8 °F 65% 30.20 in 10.0 mi West 19.6 mph - N/A   Clear
12:55 PM 35.6 °F 24.5 °F 24.8 °F 65% 30.19 in 10.0 mi West 20.7 mph 24.2 mph N/A   Clear
1:15 PM 35.6 °F 25.9 °F 24.8 °F 65% 30.18 in 10.0 mi West 16.1 mph 24.2 mph N/A   Clear
1:35 PM 35.6 °F 25.9 °F 24.8 °F 65% 30.18 in 10.0 mi West 16.1 mph - N/A   Clear
1:55 PM 37.4 °F 27.8 °F 24.8 °F 60% 30.17 in 10.0 mi West 17.3 mph 21.9 mph N/A   Clear
2:15 PM 37.4 °F 29.3 °F 26.6 °F 65% 30.17 in 10.0 mi West 12.7 mph - N/A   Clear
2:35 PM 37.4 °F 28.9 °F 26.6 °F 65% 30.17 in 10.0 mi West 13.8 mph 17.3 mph N/A   Clear
2:55 PM 37.4 °F 29.3 °F 26.6 °F 65% 30.17 in 10.0 mi West 12.7 mph - N/A   Clear
3:15 PM 37.4 °F 29.3 °F 24.8 °F 60% 30.17 in 10.0 mi West 12.7 mph - N/A   Clear
3:35 PM 37.4 °F 30.8 °F 26.6 °F 65% 30.17 in 10.0 mi WSW 9.2 mph - N/A   Clear
4:15 PM 35.6 °F 28.6 °F 26.6 °F 70% 30.17 in 10.0 mi West 9.2 mph - N/A   Clear
4:35 PM 35.6 °F 27.5 °F 24.8 °F 65% 30.17 in 10.0 mi WSW 11.5 mph - N/A   Clear
5:15 PM 33.8 °F 25.3 °F 24.8 °F 70% 30.18 in 10.0 mi West 11.5 mph - N/A   Clear
5:35 PM 33.8 °F 25.3 °F 24.8 °F 70% 30.18 in 10.0 mi West 11.5 mph - N/A   Clear
5:55 PM 33.8 °F 25.8 °F 26.6 °F 75% 30.18 in 10.0 mi West 10.4 mph - N/A   Clear
6:15 PM 33.8 °F 25.8 °F 26.6 °F 75% 30.18 in 10.0 mi West 10.4 mph - N/A   Clear
6:35 PM 33.8 °F 24.8 °F 26.6 °F 75% 30.20 in 10.0 mi West 12.7 mph - N/A   Clear
6:55 PM 33.8 °F 24.8 °F 26.6 °F 75% 30.20 in 10.0 mi West 12.7 mph 18.4 mph N/A   Clear
7:15 PM 33.8 °F 23.9 °F 24.8 °F 70% 30.20 in 10.0 mi West 15.0 mph 20.7 mph N/A   Clear
7:35 PM 33.8 °F 23.9 °F 24.8 °F 70% 30.19 in 10.0 mi West 15.0 mph 21.9 mph N/A   Clear
7:55 PM 32.0 °F 22.1 °F 23.0 °F 69% 30.20 in 10.0 mi West 13.8 mph 19.6 mph N/A   Clear
8:15 PM 32.0 °F 21.6 °F 23.0 °F 69% 30.19 in 10.0 mi West 15.0 mph - N/A   Clear
8:35 PM 32.0 °F 21.6 °F 23.0 °F 69% 30.19 in 10.0 mi WNW 15.0 mph 19.6 mph N/A   Clear
8:55 PM 30.2 °F 19.8 °F 23.0 °F 75% 30.20 in 10.0 mi WNW 13.8 mph - N/A   Clear
9:15 PM 30.2 °F 19.8 °F 23.0 °F 75% 30.20 in 10.0 mi West 13.8 mph - N/A   Clear
9:35 PM 30.2 °F 19.3 °F 21.2 °F 69% 30.20 in 10.0 mi WNW 15.0 mph - N/A   Clear
9:55 PM 30.2 °F 19.8 °F 21.2 °F 69% 30.20 in 10.0 mi WNW 13.8 mph - N/A   Clear
10:15 PM 30.2 °F 19.3 °F 21.2 °F 69% 30.20 in 10.0 mi WNW 15.0 mph - N/A   Clear
10:35 PM 30.2 °F 19.8 °F 21.2 °F 69% 30.20 in 10.0 mi WNW 13.8 mph - N/A   Clear
10:55 PM 30.2 °F 19.8 °F 21.2 °F 69% 30.20 in 10.0 mi WNW 13.8 mph - N/A   Clear
11:15 PM 30.2 °F 20.8 °F 21.2 °F 69% 30.21 in 10.0 mi West 11.5 mph - N/A   Clear
11:35 PM 30.2 °F 21.3 °F 21.2 °F 69% 30.21 in 10.0 mi West 10.4 mph - N/A   Clear
11:55 PM 30.2 °F 21.9 °F 21.2 °F 69% 30.20 in 10.0 mi West 9.2 mph - N/A   Clear